Location: Del Amo
(33.8464°N, 118.2104°W)
Time: 18:03:25
(UTC+00:00)

S-56A Canister/Altair - Pass Details

Date: 20 September 2024
Orbit: 636 x 2487 km, 38.9° (Epoch: 14 October)

Event Time Altitude Azimuth Distance (km) Brightness Sun altitude
Rises 07:12:00 0° 287° (WNW) 4,110 11.5 -54.4°
Enters shadow 07:12:33 - 286° (WNW) 3,948 11.4 -54.4°
Reaches altitude 10° 07:14:37 10° 280° (W) 3,368 - -54.5°
Maximum altitude 07:22:43 42° 213° (SSW) 2,327 - -54.9°
Drops below altitude 10° 07:34:13 10° 149° (SSE) 4,734 - -55.2°
Sets 07:38:41 0° 143° (SE) 5,930 - -55.3°
